Location: Colonia Mina de C?rbuni
(46.1667°N, 22.7167°E)
Time: 14:30:01
(UTC+00:00)

Courier 1B - Pass Details

Date: 25 April 2024
Orbit: 962 x 1208 km, 28.3° (Epoch: 23 May)

Event Time Altitude Azimuth Distance (km) Brightness Sun altitude
Rises 23:12:31 0° 233° (SW) 4,087 - -29.4°
Reaches altitude 10° 23:16:22 10° 216° (SW) 3,100 - -29.2°
Maximum altitude 23:21:20 19° 175° (S) 2,465 - -29.0°
Drops below altitude 10° 23:26:11 10° 134° (SE) 3,003 - -28.8°
Exits shadow 23:28:48 - 121° (ESE) 3,633 10.3 -28.6°
Sets 23:29:49 0° 117° (ESE) 3,915 10.6 -28.6°
